This is the latest recevied weather packets stored in our database for station/object PY3MO-11. If no packets are shown the sender has not sent any weather packets the latest 10 day(s).
| Time | Temp. | Humidity | Pressure | Rain* | Wind** | Luminosity | Snow |
|---|---|---|---|---|---|---|---|
| 1777905540 | 21.11° C | 63% | 1018.2 hPa | 0 mm | - | - | - |
| 1777905240 | 20.56° C | 64% | 1018 hPa | 0 mm | - | - | - |
| 1777904942 | 20.56° C | 64% | 1018 hPa | 0 mm | - | - | - |
| 1777904642 | 20.56° C | 63% | 1018.3 hPa | 0 mm | - | - | - |
| 1777904342 | 20.56° C | 64% | 1018.4 hPa | 0 mm | - | - | - |
| 1777904042 | 20° C | 64% | 1018.6 hPa | 0 mm | - | - | - |
| 1777903740 | 20° C | 63% | 1018.3 hPa | 0 mm | - | - | - |
| 1777903440 | 20° C | 64% | 1018.6 hPa | 0 mm | - | - | - |
| 1777903142 | 20° C | 64% | 1018.7 hPa | 0 mm | - | - | - |
| 1777902842 | 19.44° C | 65% | 1018.7 hPa | 0 mm | - | - | - |
| 1777902542 | 19.44° C | 65% | 1018.8 hPa | 0 mm | - | - | - |
| 1777902242 | 19.44° C | 65% | 1018.7 hPa | 0 mm | - | - | - |
| 1777901941 | 18.89° C | 64% | 1018.9 hPa | 0 mm | - | - | - |
| 1777901641 | 19.44° C | 64% | 1018.6 hPa | 0 mm | - | - | - |
| 1777901341 | 19.44° C | 65% | 1018.8 hPa | 0 mm | - | - | - |
| 1777901041 | 18.89° C | 68% | 1018.9 hPa | 0 mm | - | - | - |
| 1777900741 | 17.78° C | 69% | 1019 hPa | 0 mm | - | - | - |
| 1777900441 | 17.78° C | 68% | 1018.5 hPa | 0 mm | - | - | - |
| 1777900141 | 17.78° C | 69% | 1018.8 hPa | 0 mm | - | - | - |
| 1777899841 | 17.22° C | 71% | 1018.5 hPa | 0 mm | - | - | - |
| 1777899542 | 17.78° C | 70% | 1018.5 hPa | 0 mm | - | - | - |
| 1777899242 | 17.22° C | 71% | 1018.6 hPa | 0 mm | - | - | - |
| 1777898942 | 17.22° C | 71% | 1018.7 hPa | 0 mm | - | - | - |
| 1777898641 | 17.22° C | 72% | 1018.5 hPa | 0 mm | - | - | - |
| 1777898340 | 16.67° C | 71% | 1018.5 hPa | 0 mm | - | - | - |
* Rain latest hour (hover to see other rain measurements)
** Current wind speed in m/s (hover to see current wind gust speed)